CW2597 Weather Reports


Display with metric or nautical units.
time (UTC)temp
F
wind
direction
speed
MPH
gust
MPH
rain 1hr
in
rain 24hr
in
rain mn
in
humidity
%
barometer
mb
20260508072704 53 57 1.0 6.0 0.00 0.01 0.01 63 1019.7
20260508072513 52 79 0.0 4.0 0.00 0.01 0.01 63 1018.6
20260508072204 52 94 0.0 2.0 0.00 0.01 0.01 64 1019.7
20260508071513 52 84 0.0 2.0 0.00 0.01 0.01 66 1018.6
20260508071204 52 77 0.0 1.0 0.00 0.01 0.01 68 1019.6
20260508070704 52 60 0.0 0.0 0.00 0.01 0.01 72 1019.7
20260508070513 51 62 0.0 0.0 0.00 0.01 0.01 71 1018.5
20260508065204 51 107 0.0 0.0 0.00 0.01 0.01 73 1019.5
20260508064705 51 92 0.0 1.0 0.00 0.01 0.01 73 1019.4
20260508064513 51 83 0.0 3.0 0.00 0.01 0.01 74 1018.3
20260508064204 50 80 1.0 3.0 0.00 0.01 0.01 73 1019.4
20260508063704 51 60 0.0 1.0 0.00 0.01 0.01 75 1019.3
20260508063513 50 83 0.0 4.0 0.00 0.01 0.01 77 1018.2
20260508063204 50 73 0.0 1.0 0.00 0.01 0.01 76 1019.3
20260508062704 50 96 2.0 8.0 0.00 0.01 0.01 77 1019.2
20260508062514 50 61 2.0 8.0 0.00 0.01 0.01 78 1018.1
20260508061704 49 70 1.0 6.0 0.00 0.01 0.01 83 1019.2
20260508061513 49 77 2.0 6.0 0.00 0.01 0.01 82 1018.0
20260508061204 49 87 2.0 3.0 0.00 0.01 0.01 85 1019.1
20260508060704 49 81 0.0 1.0 0.00 0.01 0.01 87 1019.1
20260508060204 49 67 0.0 3.0 0.00 0.01 0.01 89 1019.1
20260508055513 49 56 1.0 4.0 0.00 0.01 0.01 91 1018.0
20260508055204 48 45 0.0 0.0 0.00 0.01 0.01 92 1019.1
20260508054704 47 31 0.0 0.0 0.00 0.01 0.01 93 1019.1
20260508054513 47 31 0.0 0.0 0.00 0.01 0.01 93 1018.0
20260508054204 47 23 0.0 0.0 0.00 0.01 0.01 94 1019.1
20260508053704 46 61 0.0 0.0 0.00 0.01 0.01 94 1019.1
20260508053513 46 59 0.0 0.0 0.00 0.01 0.01 94 1017.9
20260508053204 45 59 0.0 0.0 0.00 0.01 0.01 94 1019.1
20260508052514 45 59 0.0 0.0 0.00 0.01 0.01 94 1018.0
20260508052204 44 59 0.0 0.0 0.00 0.01 0.01 94 1019.1
20260508051704 44 135 0.0 0.0 0.00 0.01 0.01 95 1019.1
20260508051204 43 135 0.0 0.0 0.00 0.01 0.01 95 1019.0
20260508050706 41 135 0.0 0.0 0.00 0.01 0.01 94 1019.0
20260508050513 41 135 0.0 0.0 0.00 0.01 0.01 94 1017.8
20260508045706 40 135 0.0 0.0 0.00 0.01 0.01 94 1018.9
20260508045513 39 135 0.0 0.0 0.00 0.01 0.01 94 1017.7
20260508045205 39 135 0.0 0.0 0.00 0.01 0.01 94 1019.0
20260508044706 38 135 0.0 0.0 0.00 0.01 0.01 94 1018.9
20260508044513 38 135 0.0 0.0 0.00 0.01 0.01 94 1017.6
20260508043705 36 135 0.0 0.0 0.00 0.01 0.01 93 1018.9
20260508043513 36 135 0.0 0.0 0.00 0.01 0.01 93 1017.5
20260508043206 36 135 0.0 0.0 0.00 0.01 0.01 93 1018.8
20260508042706 36 135 0.0 0.0 0.00 0.01 0.01 93 1018.8
20260508041513 35 135 0.0 0.0 0.00 0.01 0.01 92 1017.5
20260508041206 35 135 0.0 0.0 0.00 0.01 0.01 92 1018.8
20260508040706 35 135 0.0 0.0 0.00 0.01 0.01 92 1018.8
20260508040205 35 135 0.0 0.0 0.00 0.01 0.01 92 1018.7
20260508035513 35 135 0.0 0.0 0.00 0.01 0.01 92 1017.4
20260508035205 35 135 0.0 0.0 0.00 0.01 0.01 92 1018.7
20260508034706 36 135 0.0 0.0 0.00 0.01 0.01 92 1018.8
20260508034513 35 135 0.0 0.0 0.00 0.01 0.01 92 1017.5
20260508034205 36 135 0.0 0.0 0.00 0.01 0.01 92 1018.8
20260508033705 35 135 0.0 0.0 0.00 0.01 0.01 92 1018.8
20260508033513 36 135 0.0 0.0 0.00 0.01 0.01 92 1017.4
20260508033205 36 135 0.0 0.0 0.00 0.01 0.01 92 1018.7
20260508032706 36 135 0.0 0.0 0.00 0.01 0.01 92 1018.7
20260508032205 36 135 0.0 0.0 0.00 0.01 0.01 92 1018.7
20260508031705 36 135 0.0 0.0 0.00 0.01 0.01 92 1018.7
20260508031205 36 135 0.0 0.0 0.00 0.01 0.01 92 1018.7
20260508030705 36 135 0.0 0.0 0.00 0.01 0.01 92 1018.7
20260508025706 37 135 0.0 0.0 0.00 0.01 0.01 92 1018.7
20260508025514 37 135 0.0 0.0 0.00 0.01 0.01 92 1017.3
20260508025206 37 135 0.0 0.0 0.00 0.01 0.01 92 1018.7
20260508024705 37 135 0.0 0.0 0.00 0.01 0.01 92 1018.7
20260508024513 37 135 0.0 0.0 0.00 0.01 0.01 92 1017.4
20260508024205 37 135 0.0 0.0 0.00 0.01 0.01 92 1018.8
20260508023705 37 135 0.0 0.0 0.00 0.01 0.01 92 1018.8
20260508023205 37 135 0.0 0.0 0.00 0.01 0.01 92 1018.8
20260508022705 37 135 0.0 0.0 0.00 0.01 0.01 92 1018.8
20260508022205 37 135 0.0 0.0 0.00 0.01 0.01 92 1018.8
20260508021705 37 135 0.0 0.0 0.00 0.01 0.01 92 1018.8
20260508021512 37 135 0.0 0.0 0.00 0.01 0.01 92 1017.5
20260508021206 37 135 0.0 0.0 0.00 0.01 0.01 92 1018.8
20260508020706 37 135 0.0 0.0 0.00 0.01 0.01 92 1018.8
20260508020512 37 135 0.0 0.0 0.00 0.01 0.01 92 1017.5
20260508015705 37 135 0.0 0.0 0.00 0.01 0.01 92 1018.8
20260508015513 37 135 0.0 0.0 0.00 0.01 0.01 92 1017.4
20260508015205 37 135 0.0 0.0 0.00 0.01 0.01 92 1018.8
20260508014706 37 135 0.0 0.0 0.00 0.01 0.01 92 1018.8
20260508014206 38 135 0.0 0.0 0.01 0.01 0.01 92 1018.8
20260508013705 38 135 0.0 0.0 0.01 0.01 0.01 91 1018.8
20260508013512 38 135 0.0 0.0 0.01 0.01 0.01 91 1017.5
20260508013205 38 135 0.0 0.0 0.01 0.01 0.01 92 1018.7
20260508012705 38 135 0.0 0.0 0.01 0.01 0.01 92 1018.7
20260508012513 38 135 0.0 0.0 0.01 0.01 0.01 92 1017.5
20260508012206 38 135 0.0 0.0 0.01 0.01 0.01 92 1018.7
20260508011706 38 135 0.0 0.0 0.01 0.01 0.01 91 1018.8
20260508011512 38 135 0.0 0.0 0.01 0.01 0.01 92 1017.5
20260508011205 39 135 0.0 0.0 0.01 0.01 0.01 91 1018.7
20260508010513 39 135 0.0 0.0 0.01 0.01 0.01 92 1017.4
20260508010205 39 135 0.0 0.0 0.01 0.01 0.01 92 1018.6
20260508005705 39 135 0.0 0.0 0.01 0.01 0.01 91 1018.7
20260508005513 39 135 0.0 0.0 0.01 0.01 0.01 91 1017.4
20260508005205 39 135 0.0 0.0 0.01 0.01 0.01 92 1018.7
20260508004513 39 135 0.0 0.0 0.01 0.01 0.01 92 1017.3
20260508003705 39 135 0.0 0.0 0.00 0.00 0.00 92 1018.6
20260508003513 39 135 0.0 0.0 0.00 0.00 0.00 92 1017.3
20260508003206 39 135 0.0 0.0 0.00 0.00 0.00 91 1018.5
20260508002705 39 135 0.0 0.0 0.00 0.00 0.00 91 1018.5
20260508002513 39 135 0.0 0.0 0.00 0.00 0.00 91 1017.3
20260508002205 39 135 0.0 0.0 0.00 0.00 0.00 91 1018.5
20260508001205 40 135 0.0 0.0 0.00 0.00 0.00 91 1018.5
20260508000512 40 135 0.0 0.0 0.00 0.00 0.00 91 1017.2
20260508000206 40 135 0.0 0.0 0.00 0.00 0.00 91 1018.6
20260507235512 40 135 0.0 0.0 0.00 0.00 0.00 91 1017.3
20260507234512 40 135 0.0 0.0 0.00 0.00 0.00 91 1017.4
20260507234205 40 135 0.0 0.0 0.00 0.00 0.00 90 1018.6
20260507233706 40 135 0.0 0.0 0.00 0.00 0.00 90 1018.6
20260507233512 40 135 0.0 0.0 0.00 0.00 0.00 90 1017.4
20260507233205 40 135 0.0 0.0 0.00 0.00 0.00 90 1018.6
20260507232706 40 135 0.0 0.0 0.00 0.00 0.00 90 1018.5
20260507232206 40 135 0.0 0.0 0.00 0.00 0.00 90 1018.5
20260507231705 40 135 0.0 0.0 0.00 0.00 0.00 90 1018.6
20260507231512 40 135 0.0 0.0 0.00 0.00 0.00 91 1017.3
20260507230706 40 135 0.0 0.0 0.00 0.00 0.00 90 1018.6
20260507230512 40 135 0.0 0.0 0.00 0.00 0.00 90 1017.3
20260507225705 41 135 0.0 0.0 0.00 0.00 0.00 90 1018.6
20260507225205 41 135 0.0 0.0 0.00 0.00 0.00 90 1018.6
20260507224705 41 135 0.0 0.0 0.00 0.00 0.00 90 1018.6
20260507224205 41 135 0.0 0.0 0.00 0.00 0.00 90 1018.5
20260507223513 41 135 0.0 0.0 0.00 0.00 0.00 90 1017.3
20260507223206 41 135 0.0 0.0 0.00 0.00 0.00 90 1018.5
20260507222705 42 135 0.0 0.0 0.00 0.00 0.00 90 1018.5
20260507222512 42 135 0.0 0.0 0.00 0.00 0.00 89 1017.3
20260507222205 42 135 0.0 0.0 0.00 0.00 0.00 89 1018.4
20260507221513 42 135 0.0 0.0 0.00 0.00 0.00 89 1017.3
20260507221205 42 135 0.0 0.0 0.00 0.00 0.00 89 1018.4
20260507220706 42 135 0.0 0.0 0.00 0.00 0.00 89 1018.4
20260507220205 43 135 0.0 0.0 0.00 0.00 0.00 89 1018.3
20260507215705 43 135 0.0 0.0 0.00 0.00 0.00 89 1018.2
20260507215512 43 135 0.0 0.0 0.00 0.00 0.00 89 1017.0
20260507215205 43 135 0.0 0.0 0.00 0.00 0.00 90 1018.2
20260507214705 43 135 0.0 0.0 0.00 0.00 0.00 89 1018.1
20260507214512 43 135 0.0 0.0 0.00 0.00 0.00 89 1017.0
20260507213705 43 135 0.0 0.0 0.00 0.00 0.00 89 1018.2
20260507213512 43 135 0.0 0.0 0.00 0.00 0.00 89 1017.0
20260507213205 43 135 0.0 0.0 0.00 0.00 0.00 88 1018.2
20260507212705 44 135 0.0 0.0 0.00 0.00 0.00 89 1018.2
20260507212512 44 135 0.0 0.0 0.00 0.00 0.00 89 1017.0
20260507212205 44 135 0.0 0.0 0.00 0.00 0.00 89 1018.2
20260507211705 44 135 0.0 0.0 0.00 0.00 0.00 89 1018.3
20260507211205 44 135 0.0 0.0 0.00 0.00 0.00 88 1018.3
20260507210705 44 135 0.0 0.0 0.00 0.00 0.00 88 1018.3
20260507205705 45 135 0.0 0.0 0.00 0.00 0.00 88 1018.2
20260507205205 45 135 0.0 0.0 0.00 0.00 0.00 88 1018.1
20260507204513 45 135 0.0 0.0 0.00 0.00 0.00 87 1016.9
20260507203512 46 135 0.0 0.0 0.00 0.00 0.00 87 1016.9
20260507203205 46 135 0.0 0.0 0.00 0.00 0.00 87 1018.1
20260507202705 46 135 0.0 0.0 0.00 0.00 0.00 87 1018.0
20260507202511 46 135 0.0 0.0 0.00 0.00 0.00 87 1016.9
20260507202205 46 135 0.0 0.0 0.00 0.00 0.00 87 1018.0
20260507201705 46 135 0.0 0.0 0.00 0.00 0.00 86 1017.9
20260507201513 46 135 0.0 0.0 0.00 0.00 0.00 86 1016.8
20260507201205 46 135 0.0 0.0 0.00 0.00 0.00 86 1017.9
20260507200705 47 135 0.0 0.0 0.00 0.00 0.00 86 1017.9
20260507200512 47 135 0.0 0.0 0.00 0.00 0.00 86 1016.7
20260507200205 47 135 0.0 0.0 0.00 0.00 0.00 85 1017.8
20260507195205 47 135 0.0 0.0 0.00 0.00 0.00 85 1017.7
20260507194705 47 135 0.0 0.0 0.00 0.00 0.00 84 1017.6
20260507194512 47 135 0.0 0.0 0.00 0.00 0.00 84 1016.4
20260507194205 48 135 0.0 0.0 0.00 0.00 0.00 84 1017.5
20260507193512 48 135 0.0 0.0 0.00 0.00 0.00 83 1016.4
20260507193205 48 135 0.0 0.0 0.00 0.00 0.00 83 1017.5
20260507192705 49 135 0.0 0.0 0.00 0.00 0.00 82 1017.4
20260507192513 49 135 0.0 0.0 0.00 0.00 0.00 82 1016.2
20260507192205 49 135 0.0 0.0 0.00 0.00 0.00 81 1017.4
20260507191705 50 135 0.0 0.0 0.00 0.00 0.00 81 1017.4
20260507191513 50 135 0.0 0.0 0.00 0.00 0.00 81 1016.2
20260507191205 50 135 0.0 0.0 0.00 0.00 0.00 80 1017.3
20260507190705 50 135 0.0 0.0 0.00 0.00 0.00 80 1017.3
20260507190511 51 135 0.0 0.0 0.00 0.00 0.00 80 1016.2
20260507190205 51 135 0.0 0.0 0.00 0.00 0.00 80 1017.3
20260507185705 51 135 0.0 0.0 0.00 0.00 0.00 79 1017.1
20260507185512 51 135 0.0 0.0 0.00 0.00 0.00 79 1016.0
20260507185204 51 135 0.0 0.0 0.00 0.00 0.00 79 1017.1
20260507184705 52 145 0.0 0.0 0.00 0.00 0.00 78 1017.1
20260507184512 52 166 0.0 0.0 0.00 0.00 0.00 78 1016.0
20260507184205 52 166 0.0 0.0 0.00 0.00 0.00 78 1017.1
20260507183704 52 166 0.0 0.0 0.00 0.00 0.00 78 1017.1
20260507183512 52 166 0.0 0.0 0.00 0.00 0.00 78 1016.0
20260507182705 53 160 0.0 0.0 0.00 0.00 0.00 77 1017.1
20260507182511 53 160 0.0 0.0 0.00 0.00 0.00 76 1015.9
20260507182205 53 166 0.0 0.0 0.00 0.00 0.00 76 1017.0
20260507181511 53 177 0.0 0.0 0.00 0.00 0.00 75 1015.9
20260507181205 53 177 0.0 0.0 0.00 0.00 0.00 76 1017.1
20260507180704 54 165 0.0 0.0 0.00 0.00 0.00 75 1017.0
20260507180511 54 165 0.0 0.0 0.00 0.00 0.00 75 1015.8
20260507180204 54 156 0.0 0.0 0.00 0.00 0.00 75 1017.0
20260507175705 54 192 0.0 0.0 0.00 0.00 0.00 74 1016.9
20260507175512 54 192 0.0 0.0 0.00 0.00 0.00 74 1015.8
20260507175204 54 181 0.0 0.0 0.00 0.00 0.00 74 1016.9
20260507174705 54 111 0.0 0.0 0.00 0.00 0.00 74 1017.0
20260507174511 54 110 0.0 0.0 0.00 0.00 0.00 74 1015.8
20260507173511 55 183 0.0 0.0 0.00 0.00 0.00 73 1015.7
20260507173205 55 179 0.0 0.0 0.00 0.00 0.00 73 1016.8
20260507172705 55 158 0.0 0.0 0.00 0.00 0.00 72 1016.8
20260507172512 55 140 0.0 0.0 0.00 0.00 0.00 73 1015.7
20260507172205 55 139 0.0 0.0 0.00 0.00 0.00 72 1016.7
20260507171705 55 130 0.0 0.0 0.00 0.00 0.00 72 1016.6
20260507171512 55 104 0.0 0.0 0.00 0.00 0.00 72 1015.5
20260507171205 55 113 0.0 0.0 0.00 0.00 0.00 72 1016.6
20260507170704 55 91 0.0 0.0 0.00 0.00 0.00 71 1016.6
20260507170512 56 75 0.0 0.0 0.00 0.00 0.00 71 1015.4
20260507170204 55 76 0.0 0.0 0.00 0.00 0.00 71 1016.6
20260507165705 56 76 0.0 0.0 0.00 0.00 0.00 70 1016.5
20260507165511 56 38 0.0 0.0 0.00 0.00 0.00 69 1015.3
20260507165205 56 90 0.0 0.0 0.00 0.00 0.00 70 1016.5
20260507164705 56 88 0.0 0.0 0.00 0.00 0.00 69 1016.5
20260507164511 56 87 0.0 0.0 0.00 0.00 0.00 69 1015.3
20260507164205 56 76 0.0 0.0 0.00 0.00 0.00 70 1016.4
20260507163705 56 205 0.0 0.0 0.00 0.01 0.00 70 1016.5
20260507163204 56 104 0.0 0.0 0.00 0.01 0.00 72 1016.5
20260507162705 55 93 0.0 0.0 0.00 0.01 0.00 71 1016.5
20260507162512 56 161 0.0 0.0 0.00 0.00 0.00 69 1015.3
20260507162204 56 126 0.0 0.0 0.00 0.01 0.00 70 1016.6
20260507161704 56 88 0.0 0.0 0.00 0.01 0.00 71 1016.5
20260507161511 56 69 0.0 0.0 0.00 0.00 0.00 71 1015.4
20260507161204 55 77 0.0 0.0 0.00 0.01 0.00 70 1016.5
20260507160705 56 112 0.0 0.0 0.00 0.01 0.00 70 1016.5
20260507160205 56 83 0.0 0.0 0.00 0.01 0.00 69 1016.5
20260507155705 55 93 0.0 0.0 0.00 0.01 0.00 70 1016.5
20260507155511 55 77 0.0 0.0 0.00 0.00 0.00 70 1015.3
20260507155204 55 103 0.0 0.0 0.00 0.01 0.00 68 1016.5
20260507154511 56 140 0.0 0.0 0.00 0.00 0.00 72 1015.3
20260507154205 55 68 0.0 0.0 0.00 0.02 0.00 70 1016.5
20260507153705 55 103 0.0 0.0 0.00 0.02 0.00 70 1016.5
20260507153205 55 98 0.0 0.0 0.00 0.02 0.00 69 1016.5
20260507152705 56 242 0.0 0.0 0.00 0.02 0.00 71 1016.5
20260507152511 55 242 0.0 0.0 0.00 0.00 0.00 70 1015.3
20260507152204 55 185 0.0 0.0 0.00 0.02 0.00 71 1016.5
20260507151511 54 106 0.0 0.0 0.00 0.00 0.00 74 1015.4
20260507151205 54 148 0.0 0.0 0.00 0.02 0.00 73 1016.5
20260507150512 54 78 0.0 0.0 0.00 0.00 0.00 73 1015.4
20260507150204 54 27 0.0 0.0 0.00 0.02 0.00 74 1016.5
20260507145704 54 86 0.0 0.0 0.00 0.02 0.00 74 1016.5
20260507145511 54 86 0.0 0.0 0.00 0.00 0.00 74 1015.4
20260507145204 54 146 0.0 0.0 0.00 0.03 0.00 76 1016.5
20260507144705 54 52 0.0 0.0 0.00 0.03 0.00 74 1016.6
20260507143705 55 65 0.0 0.0 0.00 0.03 0.00 75 1016.6
20260507143205 55 110 0.0 0.0 0.00 0.04 0.00 76 1016.6
20260507142705 54 121 0.0 0.0 0.00 0.04 0.00 77 1016.6
20260507142511 54 91 0.0 0.0 0.00 0.00 0.00 76 1015.4
20260507142205 54 133 0.0 0.0 0.00 0.04 0.00 78 1016.6
20260507141704 53 153 0.0 0.0 0.00 0.05 0.00 80 1016.6
20260507141511 53 172 0.0 0.0 0.00 0.00 0.00 81 1015.4
20260507141204 52 102 0.0 0.0 0.00 0.05 0.00 80 1016.6
20260507140704 52 94 0.0 0.0 0.00 0.05 0.00 79 1016.6
20260507135705 52 92 0.0 0.0 0.00 0.06 0.00 78 1016.6
20260507135511 52 96 0.0 0.0 0.00 0.00 0.00 78 1015.5
20260507135204 52 54 0.0 0.0 0.00 0.06 0.00 78 1016.7
20260507134704 52 46 0.0 0.0 0.00 0.06 0.00 78 1016.7
20260507134511 52 345 0.0 0.0 0.00 0.00 0.00 78 1015.5
20260507134205 52 59 0.0 0.0 0.00 0.06 0.00 78 1016.7
20260507133705 52 69 0.0 0.0 0.00 0.07 0.00 78 1016.6
20260507133511 51 67 0.0 0.0 0.00 0.00 0.00 78 1015.5
20260507133205 51 62 0.0 0.0 0.00 0.08 0.00 79 1016.6
20260507132705 51 61 0.0 0.0 0.00 0.08 0.00 80 1016.6
20260507132512 51 65 0.0 0.0 0.00 0.00 0.00 80 1015.4
20260507132205 51 71 0.0 0.0 0.00 0.09 0.00 80 1016.6
20260507131704 51 91 0.0 0.0 0.00 0.09 0.00 79 1016.6
20260507131205 51 34 0.0 0.0 0.00 0.10 0.00 80 1016.5
20260507130705 51 66 0.0 0.0 0.00 0.10 0.00 80 1016.5
20260507130511 51 59 0.0 0.0 0.00 0.00 0.00 81 1015.4
20260507130205 51 359 0.0 0.0 0.00 0.11 0.00 81 1016.6
20260507125705 51 49 0.0 0.0 0.00 0.12 0.00 80 1016.5
20260507125511 51 46 0.0 0.0 0.00 0.00 0.00 79 1015.3
20260507125204 51 58 0.0 0.0 0.00 0.13 0.00 80 1016.5
20260507124704 51 81 0.0 0.0 0.00 0.13 0.00 80 1016.5
20260507124511 51 50 0.0 0.0 0.00 0.00 0.00 80 1015.2
20260507124205 51 55 0.0 0.0 0.00 0.13 0.00 80 1016.4
20260507123205 51 92 0.0 0.0 0.00 0.14 0.00 78 1016.3
20260507122511 51 357 0.0 0.0 0.00 0.00 0.00 79 1015.2
20260507122205 51 46 0.0 0.0 0.00 0.15 0.00 79 1016.2
20260507121705 51 17 0.0 0.0 0.00 0.15 0.00 79 1016.3
20260507121511 51 333 0.0 0.0 0.00 0.00 0.00 79 1015.1
20260507121205 51 44 0.0 0.0 0.00 0.16 0.00 80 1016.3
20260507120704 51 61 0.0 0.0 0.00 0.17 0.00 79 1016.2
20260507120511 51 69 0.0 0.0 0.00 0.00 0.00 79 1015.0
20260507115704 51 56 0.0 0.0 0.00 0.17 0.00 79 1016.2
20260507115510 51 61 0.0 0.0 0.00 0.00 0.00 80 1015.1
20260507115204 51 344 0.0 0.0 0.00 0.18 0.00 79 1016.3
20260507114704 51 75 0.0 0.0 0.00 0.19 0.00 80 1016.2
20260507114204 51 93 0.0 2.0 0.00 0.20 0.00 80 1016.2
20260507113704 51 54 1.0 6.0 0.00 0.20 0.00 80 1016.2
20260507113510 51 35 2.0 6.0 0.00 0.00 0.00 79 1015.0
20260507113204 51 18 1.0 3.0 0.00 0.20 0.00 79 1016.1
20260507112704 51 83 3.0 8.0 0.00 0.21 0.00 80 1016.2
20260507112510 51 87 1.0 4.0 0.00 0.00 0.00 81 1015.0
20260507112204 51 81 1.0 2.0 0.00 0.22 0.00 80 1016.1
20260507111704 51 22 1.0 3.0 0.00 0.23 0.00 80 1016.1
20260507111510 51 65 0.0 3.0 0.00 0.00 0.00 80 1014.9
20260507111204 51 54 0.0 0.0 0.00 0.24 0.00 80 1016.1
20260507110704 50 84 0.0 3.0 0.00 0.25 0.00 80 1016.0
20260507110510 50 18 1.0 6.0 0.00 0.00 0.00 80 1014.9
20260507110205 50 56 2.0 6.0 0.00 0.26 0.00 79 1016.0
20260507105704 51 74 0.0 0.0 0.00 0.27 0.00 81 1016.0
20260507105510 51 9 0.0 0.0 0.00 0.00 0.00 81 1014.8
20260507105204 50 302 0.0 0.0 0.00 0.28 0.00 82 1015.9
20260507104510 50 53 1.0 7.0 0.00 0.00 0.00 81 1014.8
20260507104204 50 43 1.0 8.0 0.00 0.29 0.00 81 1016.0
20260507103704 50 53 0.0 0.0 0.00 0.30 0.00 81 1015.9
20260507103510 50 40 0.0 0.0 0.00 0.00 0.00 81 1014.7
20260507103204 50 47 0.0 0.0 0.00 0.31 0.00 81 1015.9
20260507102704 50 48 0.0 1.0 0.00 0.31 0.00 81 1015.8
20260507102510 50 106 0.0 1.0 0.00 0.00 0.00 81 1014.6
20260507102204 50 27 0.0 0.0 0.00 0.32 0.00 81 1015.8
20260507101511 49 102 0.0 0.0 0.00 0.00 0.00 82 1014.6
20260507101204 49 46 0.0 0.0 0.00 0.34 0.00 82 1015.8
20260507100705 49 64 0.0 0.0 0.00 0.35 0.00 82 1015.7
20260507100204 49 70 0.0 0.0 0.00 0.35 0.00 83 1015.6
20260507095704 49 70 0.0 0.0 0.00 0.35 0.00 83 1015.6
20260507095204 49 63 0.0 0.0 0.00 0.35 0.00 83 1015.5
20260507094704 49 56 0.0 0.0 0.00 0.35 0.00 83 1015.5
20260507094512 49 63 0.0 0.0 0.00 0.00 0.00 84 1014.3
20260507094204 49 86 0.0 0.0 0.00 0.36 0.00 84 1015.4
20260507093704 49 46 0.0 0.0 0.00 0.36 0.00 84 1015.4
20260507093513 49 88 0.0 0.0 0.00 0.00 0.00 84 1014.2
20260507093205 49 23 0.0 0.0 0.00 0.36 0.00 84 1015.3
20260507092704 49 72 0.0 0.0 0.00 0.37 0.00 83 1015.2
20260507092512 49 60 0.0 0.0 0.00 0.00 0.00 83 1014.1
20260507092204 49 351 0.0 0.0 0.00 0.37 0.00 84 1015.2
20260507091704 49 34 0.0 1.0 0.00 0.37 0.00 83 1015.2
20260507091513 49 71 0.0 0.0 0.00 0.00 0.00 83 1014.1
20260507091204 49 97 0.0 0.0 0.00 0.37 0.00 83 1015.2
20260507090704 49 67 0.0 0.0 0.00 0.37 0.00 83 1015.1
20260507090513 49 59 0.0 0.0 0.00 0.00 0.00 83 1013.9
20260507090205 49 52 0.0 0.0 0.00 0.37 0.00 83 1015.1
20260507085704 49 55 0.0 0.0 0.00 0.38 0.00 83 1015.0
20260507085512 49 355 0.0 0.0 0.00 0.00 0.00 83 1013.8
20260507085204 49 50 0.0 0.0 0.00 0.38 0.00 84 1015.0
20260507084704 49 66 0.0 0.0 0.00 0.38 0.00 84 1014.9
20260507084513 49 34 0.0 5.0 0.00 0.00 0.00 84 1013.7
20260507084204 49 28 1.0 5.0 0.00 0.38 0.00 84 1014.8
20260507083704 49 36 1.0 6.0 0.00 0.38 0.00 85 1014.7
20260507083512 49 7 1.0 6.0 0.00 0.00 0.00 85 1013.6
20260507082704 49 43 0.0 0.0 0.00 0.39 0.00 85 1014.7
20260507082512 49 52 0.0 0.0 0.00 0.00 0.00 85 1013.5
20260507082204 49 27 0.0 0.0 0.00 0.39 0.00 85 1014.6
20260507081704 49 16 0.0 0.0 0.00 0.39 0.00 85 1014.6
20260507081512 49 16 0.0 0.0 0.00 0.00 0.00 85 1013.4
20260507081204 49 43 0.0 1.0 0.00 0.39 0.00 85 1014.6
20260507080704 49 55 0.0 0.0 0.00 0.39 0.00 86 1014.5
20260507075704 48 51 0.0 6.0 0.00 0.40 0.00 86 1014.5
20260507075204 48 58 0.0 0.0 0.00 0.40 0.00 86 1014.4
20260507074704 48 85 0.0 0.0 0.00 0.40 0.00 86 1014.3
20260507074512 48 34 0.0 0.0 0.00 0.00 0.00 86 1013.1
20260507074204 48 44 0.0 0.0 0.00 0.41 0.00 86 1014.2
20260507073704 48 62 0.0 0.0 0.00 0.42 0.00 86 1014.2